Christine Anderson — WCN2606 — position and weather

sailwx.info

Track history (hours):
 
Tides and Currents Weather Stations Pressure Air Temp Water Temp Dewpoint Dewpoint Depression Visibility Wind Speed Wind Dir Waves Ship Positions

Christine Anderson

Owner: PIERCE, COUNTY OF, TACOMA, WA. More information available from US FCC via Universal Licensing System and Coast Guard Vessel Documentation Center.

Last reported at 2014-Oct-30 03:18 UTC. Time now 2014-Oct-30 13:07 UTC.
Position N 47°10' W 122°36'.

MMSI: 366659730.

Date/timePositionNaut miles runAvg speedWind from/ knotsBaromVisibWave heightAir tempDewpointWater temp
2014-Oct-30 03:18N 47°10' W 122°36'1 0.7
2014-Oct-30 02:33N 47°11' W 122°37'0 0.1
2014-Oct-30 01:33N 47°11' W 122°37'3 2.4
2014-Oct-30 00:31N 47°11' W 122°41'0 0.0
2014-Oct-29 23:32N 47°11' W 122°41'0 0.0
2014-Oct-29 22:34N 47°11' W 122°41'0 0.0
2014-Oct-29 21:34N 47°11' W 122°41'3 2.9
2014-Oct-29 20:30N 47°10' W 122°36'2 2.6
2014-Oct-29 19:33N 47°11' W 122°40'2 2.1
2014-Oct-29 18:24N 47°10' W 122°36'3 3.6
2014-Oct-29 17:33N 47°11' W 122°41'0 0.0
2014-Oct-29 16:33N 47°11' W 122°41'1 0.5
2014-Oct-29 15:33N 47°11' W 122°40'0 0.2
2014-Oct-29 14:34N 47°11' W 122°40'2 2.3
2014-Oct-29 13:33N 47°10' W 122°36'0 0.0
2014-Oct-29 03:18N 47°10' W 122°36'1 1.0
2014-Oct-29 02:33N 47°11' W 122°37'0 0.2
2014-Oct-29 01:34N 47°11' W 122°37'2 2.4
2014-Oct-29 00:33N 47°11' W 122°41'0 0.0
2014-Oct-28 23:33N 47°11' W 122°41'0 0.0
2014-Oct-28 22:33N 47°11' W 122°41'0 0.0
2014-Oct-28 21:33N 47°11' W 122°41'0 0.2
2014-Oct-28 19:34N 47°11' W 122°40'3 1.7
2014-Oct-28 18:06N 47°10' W 122°36'2 4.3
2014-Oct-28 17:33N 47°11' W 122°40'0 0.1
2014-Oct-28 16:33N 47°11' W 122°40'0 0.1
2014-Oct-28 15:33N 47°11' W 122°40'0 0.1
2014-Oct-28 14:33N 47°11' W 122°40'2 2.4
2014-Oct-28 13:33N 47°10' W 122°36'0 0.0
2014-Oct-28 03:20N 47°10' W 122°36'0 0.6
2014-Oct-28 02:33N 47°11' W 122°37'0 0.2
2014-Oct-28 01:33N 47°11' W 122°37'3 2.6
2014-Oct-28 00:33N 47°11' W 122°41'0 0.0
2014-Oct-27 23:33N 47°11' W 122°41'0 0.0
2014-Oct-27 22:33N 47°11' W 122°41'0 0.0
2014-Oct-27 21:30N 47°11' W 122°41'0 0.0
2014-Oct-27 19:30N 47°11' W 122°41'3 3.2
2014-Oct-27 18:33N 47°10' W 122°36'2 2.4
2014-Oct-27 17:33N 47°11' W 122°40'1 3.0
2014-Oct-27 17:20N 47°11' W 122°41'1 0.7
2014-Oct-27 16:33N 47°11' W 122°40'1 0.6
2014-Oct-27 15:33N 47°11' W 122°41'1 0.7
2014-Oct-27 14:33N 47°11' W 122°40'2 3.0
2014-Oct-27 14:00N 47°10' W 122°38'1 2.8
2014-Oct-27 13:33N 47°11' W 122°36'0 0.0
2014-Oct-27 04:29N 47°10' W 122°36'0 0.0
2014-Oct-27 04:28N 47°10' W 122°36'0 0.0
2014-Oct-27 03:33N 47°10' W 122°36'0 0.5
2014-Oct-27 02:33N 47°11' W 122°37'0 0.2
2014-Oct-27 01:32N 47°11' W 122°37'3 2.8
2014-Oct-27 00:33N 47°11' W 122°41'3 7.0
2014-Oct-27 00:07N 47°10' W 122°36'3 5.4
2014-Oct-26 23:33N 47°11' W 122°41'3 7.0
2014-Oct-26 23:07N 47°10' W 122°36'3 5.4
2014-Oct-26 22:33N 47°11' W 122°41'3 8.5
2014-Oct-26 22:12N 47°10' W 122°36'3 4.2
2014-Oct-26 21:28N 47°11' W 122°41'0 4.4
2014-Oct-26 21:27N 47°11' W 122°40'3 3.3
2014-Oct-26 20:33N 47°10' W 122°36'3 2.6
2014-Oct-26 19:33N 47°11' W 122°40'3 4.2
2014-Oct-26 18:57N 47°10' W 122°36'0 0.0
2014-Oct-26 18:30N 47°10' W 122°36'0 0.0
2014-Oct-26 18:17N 47°10' W 122°36'2 3.3
2014-Oct-26 17:33N 47°11' W 122°40'0 0.0
2014-Oct-26 16:33N 47°11' W 122°40'0 0.0
2014-Oct-26 15:33N 47°11' W 122°40'0 0.0
2014-Oct-26 14:33N 47°11' W 122°40'2 2.4
2014-Oct-26 13:33N 47°10' W 122°36'2 0.3
2014-Oct-26 05:34N 47°11' W 122°40'2 2.2
2014-Oct-26 04:31N 47°10' W 122°36'0 0.0
2014-Oct-26 03:34N 47°10' W 122°36'0 0.1
2014-Oct-26 02:31N 47°11' W 122°36'0 0.0
2014-Oct-26 01:32N 47°11' W 122°36'3 3.0
2014-Oct-26 00:33N 47°11' W 122°41'0 0.0
2014-Oct-25 23:33N 47°11' W 122°41'0 0.0
2014-Oct-25 22:33N 47°11' W 122°41'0 1.5
2014-Oct-25 22:24N 47°11' W 122°40'0 0.3
2014-Oct-25 21:33N 47°11' W 122°41'0 0.2
2014-Oct-25 19:34N 47°11' W 122°40'3 3.8
2014-Oct-25 18:53N 47°10' W 122°36'0 0.0
2014-Oct-25 18:33N 47°10' W 122°36'2 2.5
2014-Oct-25 17:33N 47°11' W 122°40'0 0.0
2014-Oct-25 16:33N 47°11' W 122°40'0 0.1
2014-Oct-25 15:33N 47°11' W 122°40'0 0.2
2014-Oct-25 14:32N 47°11' W 122°40'3 2.7
2014-Oct-25 13:33N 47°10' W 122°36'3 0.3
2014-Oct-25 05:33N 47°11' W 122°40'3 4.3
2014-Oct-25 04:57N 47°10' W 122°36'0 0.0
2014-Oct-25 04:27N 47°10' W 122°36'0 1.1
2014-Oct-25 04:27N 47°10' W 122°36'0 0.0
2014-Oct-25 03:33N 47°10' W 122°36'0 0.0
2014-Oct-25 03:27N 47°10' W 122°36'0 0.0
2014-Oct-25 02:33N 47°10' W 122°36'0 0.1
2014-Oct-25 01:33N 47°11' W 122°36'3 3.0
2014-Oct-25 00:33N 47°11' W 122°41'3 5.0
2014-Oct-24 23:56N 47°10' W 122°36'3 7.4
2014-Oct-24 23:32N 47°11' W 122°41'3 6.0
2014-Oct-24 23:01N 47°10' W 122°36'3 5.7
2014-Oct-24 22:29N 47°11' W 122°41'3 6.5
2014-Oct-24 22:01N 47°10' W 122°36'3 6.5
2014-Oct-24 21:33N 47°11' W 122°41'0 0.0
2014-Oct-24 21:26N 47°11' W 122°41'3 2.2
2014-Oct-24 20:05N 47°10' W 122°36'0 0.5
2014-Oct-24 20:03N 47°10' W 122°36'3 5.9
2014-Oct-24 19:33N 47°11' W 122°40'0 0.2
2014-Oct-24 17:33N 47°11' W 122°40'0 0.1
2014-Oct-24 16:33N 47°11' W 122°40'0 0.0
2014-Oct-24 15:33N 47°11' W 122°40'0 0.1
2014-Oct-24 14:33N 47°11' W 122°40'2 2.4
2014-Oct-24 13:33N 47°10' W 122°36'0 0.0
2014-Oct-24 12:33N 47°10' W 122°36'0 0.0
2014-Oct-24 03:17N 47°10' W 122°36'3 7.0
2014-Oct-24 02:51N 47°11' W 122°41'310.1
2014-Oct-24 02:33N 47°10' W 122°36'0 0.0
2014-Oct-24 02:21N 47°10' W 122°36'0 0.0
2014-Oct-24 01:32N 47°10' W 122°36'3 3.6
2014-Oct-24 00:41N 47°11' W 122°41'0 1.0
2014-Oct-24 00:33N 47°11' W 122°40'0 0.1
2014-Oct-23 23:36N 47°11' W 122°41'0 5.1
2014-Oct-23 23:33N 47°11' W 122°40'3 9.8
2014-Oct-23 23:16N 47°10' W 122°36'2 2.8
2014-Oct-23 22:32N 47°11' W 122°39'1 0.9
2014-Oct-23 21:26N 47°11' W 122°41'0 0.2
2014-Oct-23 19:33N 47°11' W 122°40'3 4.8
2014-Oct-23 19:00N 47°10' W 122°36'0 0.0
2014-Oct-23 18:00N 47°10' W 122°36'3 6.1
2014-Oct-23 17:33N 47°11' W 122°40'3 3.8
2014-Oct-23 16:50N 47°10' W 122°36'2 8.3
2014-Oct-23 16:33N 47°11' W 122°40'1 3.1
2014-Oct-23 16:20N 47°11' W 122°41'1 0.7
2014-Oct-23 15:33N 47°11' W 122°40'3 3.5
2014-Oct-23 14:50N 47°10' W 122°36'3 9.1
2014-Oct-23 14:33N 47°11' W 122°40'2 3.3
2014-Oct-23 14:00N 47°10' W 122°38'1 2.7
2014-Oct-23 13:33N 47°10' W 122°36'0 0.0
2014-Oct-23 12:33N 47°10' W 122°36'0 0.0
2014-Oct-23 03:34N 47°10' W 122°36'0 0.0
2014-Oct-23 02:32N 47°10' W 122°36'0 0.4
2014-Oct-23 01:33N 47°11' W 122°37'0 0.4
2014-Oct-23 00:34N 47°10' W 122°36'3 2.7
2014-Oct-22 23:27N 47°11' W 122°41'0 0.0
2014-Oct-22 22:38N 47°11' W 122°41'0 0.0
2014-Oct-22 22:28N 47°11' W 122°41'0 0.2
2014-Oct-22 21:33N 47°11' W 122°40'0 0.1
2014-Oct-22 19:34N 47°11' W 122°40'0 0.2
2014-Oct-22 17:34N 47°11' W 122°40'0 0.1
2014-Oct-22 16:34N 47°11' W 122°40'1 2.6
2014-Oct-22 16:17N 47°11' W 122°41'1 1.0
2014-Oct-22 15:34N 47°11' W 122°40'0 0.1
2014-Oct-22 14:33N 47°11' W 122°40'2 2.5
2014-Oct-22 13:33N 47°10' W 122°36'0 0.0
2014-Oct-22 12:34N 47°10' W 122°36'0 0.0
2014-Oct-22 03:16N 47°10' W 122°36'0 0.4
2014-Oct-22 02:33N 47°11' W 122°37'0 0.2
2014-Oct-22 01:32N 47°11' W 122°36'2 2.2
2014-Oct-22 00:33N 47°11' W 122°40'1 0.6
2014-Oct-21 23:33N 47°11' W 122°41'0 0.0
2014-Oct-21 22:33N 47°11' W 122°41'0 0.0
2014-Oct-21 21:33N 47°11' W 122°41'3 5.6
2014-Oct-21 21:01N 47°10' W 122°36'0 0.0
2014-Oct-21 20:33N 47°10' W 122°36'0 0.0
2014-Oct-21 20:16N 47°10' W 122°36'2 3.4
2014-Oct-21 19:33N 47°11' W 122°40'0 1.1
2014-Oct-21 19:16N 47°11' W 122°40'3 3.8
2014-Oct-21 18:32N 47°10' W 122°36'0 0.0
2014-Oct-21 18:20N 47°10' W 122°36'3 3.5
2014-Oct-21 17:33N 47°11' W 122°40'3 3.4
2014-Oct-21 16:46N 47°10' W 122°36'211.5
2014-Oct-21 16:33N 47°11' W 122°40'2 3.9
2014-Oct-21 15:55N 47°10' W 122°36'2 6.7
2014-Oct-21 15:33N 47°11' W 122°40'0 0.1
2014-Oct-21 14:33N 47°11' W 122°40'1 2.4
2014-Oct-21 14:20N 47°11' W 122°41'3 3.9
2014-Oct-21 13:33N 47°10' W 122°36'1 8.8
2014-Oct-21 13:25N 47°11' W 122°38'1 1.4
2014-Oct-21 12:33N 47°10' W 122°36'0 0.0
2014-Oct-21 03:21N 47°10' W 122°36'0 0.0
2014-Oct-21 02:23N 47°10' W 122°36'1 0.7
2014-Oct-21 01:33N 47°11' W 122°37'3 2.5
2014-Oct-21 00:33N 47°11' W 122°41'0 0.0
2014-Oct-20 23:31N 47°11' W 122°41'0 0.0
2014-Oct-20 22:33N 47°11' W 122°41'3 8.6
2014-Oct-20 22:12N 47°10' W 122°36'3 4.7
2014-Oct-20 21:33N 47°11' W 122°41'3 6.5
2014-Oct-20 21:05N 47°10' W 122°36'0 0.0
2014-Oct-20 20:15N 47°10' W 122°36'  
Track history (hours):
 
Tides and Currents Weather Stations Pressure Air Temp Water Temp Dewpoint Dewpoint Depression Visibility Wind Speed Wind Dir Waves Ship Positions

Christine Anderson

Owner: PIERCE, COUNTY OF, TACOMA, WA. More information available from US FCC via Universal Licensing System and Coast Guard Vessel Documentation Center.

Last reported at 2014-Oct-30 03:18 UTC. Time now 2014-Oct-30 13:08 UTC.
Position N 47°10' W 122°36'.

MMSI: 366659730.

Date/timePositionNaut miles runAvg speedWind from/ knotsBaromVisibWave heightAir tempDewpointWater temp
2014-Oct-30 03:18N 47°10' W 122°36'1 0.7
2014-Oct-30 02:33N 47°11' W 122°37'0 0.1
2014-Oct-30 01:33N 47°11' W 122°37'3 2.4
2014-Oct-30 00:31N 47°11' W 122°41'0 0.0
2014-Oct-29 23:32N 47°11' W 122°41'0 0.0
2014-Oct-29 22:34N 47°11' W 122°41'0 0.0
2014-Oct-29 21:34N 47°11' W 122°41'3 2.9
2014-Oct-29 20:30N 47°10' W 122°36'2 2.6
2014-Oct-29 19:33N 47°11' W 122°40'2 2.1
2014-Oct-29 18:24N 47°10' W 122°36'3 3.6
2014-Oct-29 17:33N 47°11' W 122°41'0 0.0
2014-Oct-29 16:33N 47°11' W 122°41'1 0.5
2014-Oct-29 15:33N 47°11' W 122°40'0 0.2
2014-Oct-29 14:34N 47°11' W 122°40'2 2.3
2014-Oct-29 13:33N 47°10' W 122°36'0 0.0
2014-Oct-29 03:18N 47°10' W 122°36'1 1.0
2014-Oct-29 02:33N 47°11' W 122°37'0 0.2
2014-Oct-29 01:34N 47°11' W 122°37'2 2.4
2014-Oct-29 00:33N 47°11' W 122°41'0 0.0
2014-Oct-28 23:33N 47°11' W 122°41'0 0.0
2014-Oct-28 22:33N 47°11' W 122°41'0 0.0
2014-Oct-28 21:33N 47°11' W 122°41'0 0.2
2014-Oct-28 19:34N 47°11' W 122°40'3 1.7
2014-Oct-28 18:06N 47°10' W 122°36'2 4.3
2014-Oct-28 17:33N 47°11' W 122°40'0 0.1
2014-Oct-28 16:33N 47°11' W 122°40'0 0.1
2014-Oct-28 15:33N 47°11' W 122°40'0 0.1
2014-Oct-28 14:33N 47°11' W 122°40'2 2.4
2014-Oct-28 13:33N 47°10' W 122°36'0 0.0
2014-Oct-28 03:20N 47°10' W 122°36'0 0.6
2014-Oct-28 02:33N 47°11' W 122°37'0 0.2
2014-Oct-28 01:33N 47°11' W 122°37'3 2.6
2014-Oct-28 00:33N 47°11' W 122°41'0 0.0
2014-Oct-27 23:33N 47°11' W 122°41'0 0.0
2014-Oct-27 22:33N 47°11' W 122°41'0 0.0
2014-Oct-27 21:30N 47°11' W 122°41'0 0.0
2014-Oct-27 19:30N 47°11' W 122°41'3 3.2
2014-Oct-27 18:33N 47°10' W 122°36'2 2.4
2014-Oct-27 17:33N 47°11' W 122°40'1 3.0
2014-Oct-27 17:20N 47°11' W 122°41'1 0.7
2014-Oct-27 16:33N 47°11' W 122°40'1 0.6
2014-Oct-27 15:33N 47°11' W 122°41'1 0.7
2014-Oct-27 14:33N 47°11' W 122°40'2 3.0
2014-Oct-27 14:00N 47°10' W 122°38'1 2.8
2014-Oct-27 13:33N 47°11' W 122°36'0 0.0
2014-Oct-27 04:29N 47°10' W 122°36'0 0.0
2014-Oct-27 04:28N 47°10' W 122°36'0 0.0
2014-Oct-27 03:33N 47°10' W 122°36'0 0.5
2014-Oct-27 02:33N 47°11' W 122°37'0 0.2
2014-Oct-27 01:32N 47°11' W 122°37'3 2.8
2014-Oct-27 00:33N 47°11' W 122°41'3 7.0
2014-Oct-27 00:07N 47°10' W 122°36'3 5.4
2014-Oct-26 23:33N 47°11' W 122°41'3 7.0
2014-Oct-26 23:07N 47°10' W 122°36'3 5.4
2014-Oct-26 22:33N 47°11' W 122°41'3 8.5
2014-Oct-26 22:12N 47°10' W 122°36'3 4.2
2014-Oct-26 21:28N 47°11' W 122°41'0 4.4
2014-Oct-26 21:27N 47°11' W 122°40'3 3.3
2014-Oct-26 20:33N 47°10' W 122°36'3 2.6
2014-Oct-26 19:33N 47°11' W 122°40'3 4.2
2014-Oct-26 18:57N 47°10' W 122°36'0 0.0
2014-Oct-26 18:30N 47°10' W 122°36'0 0.0
2014-Oct-26 18:17N 47°10' W 122°36'2 3.3
2014-Oct-26 17:33N 47°11' W 122°40'0 0.0
2014-Oct-26 16:33N 47°11' W 122°40'0 0.0
2014-Oct-26 15:33N 47°11' W 122°40'0 0.0
2014-Oct-26 14:33N 47°11' W 122°40'2 2.4
2014-Oct-26 13:33N 47°10' W 122°36'2 0.3
2014-Oct-26 05:34N 47°11' W 122°40'2 2.2
2014-Oct-26 04:31N 47°10' W 122°36'0 0.0
2014-Oct-26 03:34N 47°10' W 122°36'0 0.1
2014-Oct-26 02:31N 47°11' W 122°36'0 0.0
2014-Oct-26 01:32N 47°11' W 122°36'3 3.0
2014-Oct-26 00:33N 47°11' W 122°41'0 0.0
2014-Oct-25 23:33N 47°11' W 122°41'0 0.0
2014-Oct-25 22:33N 47°11' W 122°41'0 1.5
2014-Oct-25 22:24N 47°11' W 122°40'0 0.3
2014-Oct-25 21:33N 47°11' W 122°41'0 0.2
2014-Oct-25 19:34N 47°11' W 122°40'3 3.8
2014-Oct-25 18:53N 47°10' W 122°36'0 0.0
2014-Oct-25 18:33N 47°10' W 122°36'2 2.5
2014-Oct-25 17:33N 47°11' W 122°40'0 0.0
2014-Oct-25 16:33N 47°11' W 122°40'0 0.1
2014-Oct-25 15:33N 47°11' W 122°40'0 0.2
2014-Oct-25 14:32N 47°11' W 122°40'3 2.7
2014-Oct-25 13:33N 47°10' W 122°36'3 0.3
2014-Oct-25 05:33N 47°11' W 122°40'3 4.3
2014-Oct-25 04:57N 47°10' W 122°36'0 0.0
2014-Oct-25 04:27N 47°10' W 122°36'0 1.1
2014-Oct-25 04:27N 47°10' W 122°36'0 0.0
2014-Oct-25 03:33N 47°10' W 122°36'0 0.0
2014-Oct-25 03:27N 47°10' W 122°36'0 0.0
2014-Oct-25 02:33N 47°10' W 122°36'0 0.1
2014-Oct-25 01:33N 47°11' W 122°36'3 3.0
2014-Oct-25 00:33N 47°11' W 122°41'3 5.0
2014-Oct-24 23:56N 47°10' W 122°36'3 7.4
2014-Oct-24 23:32N 47°11' W 122°41'3 6.0
2014-Oct-24 23:01N 47°10' W 122°36'3 5.7
2014-Oct-24 22:29N 47°11' W 122°41'3 6.5
2014-Oct-24 22:01N 47°10' W 122°36'3 6.5
2014-Oct-24 21:33N 47°11' W 122°41'0 0.0
2014-Oct-24 21:26N 47°11' W 122°41'3 2.2
2014-Oct-24 20:05N 47°10' W 122°36'0 0.5
2014-Oct-24 20:03N 47°10' W 122°36'3 5.9
2014-Oct-24 19:33N 47°11' W 122°40'0 0.2
2014-Oct-24 17:33N 47°11' W 122°40'0 0.1
2014-Oct-24 16:33N 47°11' W 122°40'0 0.0
2014-Oct-24 15:33N 47°11' W 122°40'0 0.1
2014-Oct-24 14:33N 47°11' W 122°40'2 2.4
2014-Oct-24 13:33N 47°10' W 122°36'0 0.0
2014-Oct-24 12:33N 47°10' W 122°36'0 0.0
2014-Oct-24 03:17N 47°10' W 122°36'3 7.0
2014-Oct-24 02:51N 47°11' W 122°41'310.1
2014-Oct-24 02:33N 47°10' W 122°36'0 0.0
2014-Oct-24 02:21N 47°10' W 122°36'0 0.0
2014-Oct-24 01:32N 47°10' W 122°36'3 3.6
2014-Oct-24 00:41N 47°11' W 122°41'0 1.0
2014-Oct-24 00:33N 47°11' W 122°40'0 0.1
2014-Oct-23 23:36N 47°11' W 122°41'0 5.1
2014-Oct-23 23:33N 47°11' W 122°40'3 9.8
2014-Oct-23 23:16N 47°10' W 122°36'2 2.8
2014-Oct-23 22:32N 47°11' W 122°39'1 0.9
2014-Oct-23 21:26N 47°11' W 122°41'0 0.2
2014-Oct-23 19:33N 47°11' W 122°40'3 4.8
2014-Oct-23 19:00N 47°10' W 122°36'0 0.0
2014-Oct-23 18:00N 47°10' W 122°36'3 6.1
2014-Oct-23 17:33N 47°11' W 122°40'3 3.8
2014-Oct-23 16:50N 47°10' W 122°36'2 8.3
2014-Oct-23 16:33N 47°11' W 122°40'1 3.1
2014-Oct-23 16:20N 47°11' W 122°41'1 0.7
2014-Oct-23 15:33N 47°11' W 122°40'3 3.5
2014-Oct-23 14:50N 47°10' W 122°36'3 9.1
2014-Oct-23 14:33N 47°11' W 122°40'2 3.3
2014-Oct-23 14:00N 47°10' W 122°38'1 2.7
2014-Oct-23 13:33N 47°10' W 122°36'0 0.0
2014-Oct-23 12:33N 47°10' W 122°36'0 0.0
2014-Oct-23 03:34N 47°10' W 122°36'0 0.0
2014-Oct-23 02:32N 47°10' W 122°36'0 0.4
2014-Oct-23 01:33N 47°11' W 122°37'0 0.4
2014-Oct-23 00:34N 47°10' W 122°36'3 2.7
2014-Oct-22 23:27N 47°11' W 122°41'0 0.0
2014-Oct-22 22:38N 47°11' W 122°41'0 0.0
2014-Oct-22 22:28N 47°11' W 122°41'0 0.2
2014-Oct-22 21:33N 47°11' W 122°40'0 0.1
2014-Oct-22 19:34N 47°11' W 122°40'0 0.2
2014-Oct-22 17:34N 47°11' W 122°40'0 0.1
2014-Oct-22 16:34N 47°11' W 122°40'1 2.6
2014-Oct-22 16:17N 47°11' W 122°41'1 1.0
2014-Oct-22 15:34N 47°11' W 122°40'0 0.1
2014-Oct-22 14:33N 47°11' W 122°40'2 2.5
2014-Oct-22 13:33N 47°10' W 122°36'0 0.0
2014-Oct-22 12:34N 47°10' W 122°36'0 0.0
2014-Oct-22 03:16N 47°10' W 122°36'0 0.4
2014-Oct-22 02:33N 47°11' W 122°37'0 0.2
2014-Oct-22 01:32N 47°11' W 122°36'2 2.2
2014-Oct-22 00:33N 47°11' W 122°40'1 0.6
2014-Oct-21 23:33N 47°11' W 122°41'0 0.0
2014-Oct-21 22:33N 47°11' W 122°41'0 0.0
2014-Oct-21 21:33N 47°11' W 122°41'3 5.6
2014-Oct-21 21:01N 47°10' W 122°36'0 0.0
2014-Oct-21 20:33N 47°10' W 122°36'0 0.0
2014-Oct-21 20:16N 47°10' W 122°36'2 3.4
2014-Oct-21 19:33N 47°11' W 122°40'0 1.1
2014-Oct-21 19:16N 47°11' W 122°40'3 3.8
2014-Oct-21 18:32N 47°10' W 122°36'0 0.0
2014-Oct-21 18:20N 47°10' W 122°36'3 3.5
2014-Oct-21 17:33N 47°11' W 122°40'3 3.4
2014-Oct-21 16:46N 47°10' W 122°36'211.5
2014-Oct-21 16:33N 47°11' W 122°40'2 3.9
2014-Oct-21 15:55N 47°10' W 122°36'2 6.7
2014-Oct-21 15:33N 47°11' W 122°40'0 0.1
2014-Oct-21 14:33N 47°11' W 122°40'1 2.4
2014-Oct-21 14:20N 47°11' W 122°41'3 3.9
2014-Oct-21 13:33N 47°10' W 122°36'1 8.8
2014-Oct-21 13:25N 47°11' W 122°38'1 1.4
2014-Oct-21 12:33N 47°10' W 122°36'0 0.0
2014-Oct-21 03:21N 47°10' W 122°36'0 0.0
2014-Oct-21 02:23N 47°10' W 122°36'1 0.7
2014-Oct-21 01:33N 47°11' W 122°37'3 2.5
2014-Oct-21 00:33N 47°11' W 122°41'0 0.0
2014-Oct-20 23:31N 47°11' W 122°41'0 0.0
2014-Oct-20 22:33N 47°11' W 122°41'3 8.6
2014-Oct-20 22:12N 47°10' W 122°36'3 4.7
2014-Oct-20 21:33N 47°11' W 122°41'3 6.5
2014-Oct-20 21:05N 47°10' W 122°36'0 0.0
2014-Oct-20 20:15N 47°10' W 122°36'  

Dump ship's entire track history